GFSSGP_prec_cloud_198.txt.gz
Cloud_Cover
100 100 100 100 100 100 100 100 100 69 5 0 0 0 0 0 0 0 32 2 0 0 0 17 0 5 0 0 0 0 0 1 0 0 0 0 0 72 96 0 3 91 42 10 0 0 0 0 0
100 100 100 100 100 100 100 100 100 93 4 5 1 0 0 0 0 99 46 23 0 0 2 7 0 0 0 0 0 0 0 13 0 0 0 0 0 0 16 1 2 0 43 6 0 0 0 1 0
100 100 100 100 100 100 100 100 100 46 21 5 5 0 5 0 11 6 15 4 0 24 100 12 0 0 0 0 0 0 0 29 0 0 0 0 0 7 5 78 85 29 2 0 0 0 0 2 4
100 100 100 100 100 100 100 100 100 100 97 5 5 46 7 22 5 1 74 0 2 40 49 38 0 0 2 5 0 2 41 0 0 0 0 0 0 0 0 1 15 0 0 0 1 6 3 9 8
100 100 100 100 100 100 100 100 100 100 100 25 5 5 41 85 29 74 15 10 4 15 66 33 3 0 4 5 2 4 4 0 0 0 0 0 0 0 0 0 0 0 0 0 1 1 2 1 7
100 100 100 100 100 100 100 100 100 100 83 8 5 5 18 43 71 93 5 40 5 28 63 43 35 1 3 5 36 5 1 85 49 4 1 0 0 0 0 0 0 1 0 6 0 0 0 0 0
100 100 100 100 100 100 100 100 100 100 100 87 10 15 94 100 100 29 5 6 8 80 67 48 44 5 10 24 3 55 17 2 0 16 13 5 5 0 0 0 0 0 0 0 0 1 2 5 5
100 100 100 100 100 100 100 100 100 100 100 80 60 5 93 100 100 96 6 5 89 17 100 38 16 6 22 98 30 5 32 6 5 4 0 5 5 2 1 1 0 6 18 52 68 25 5 83 56
100 100 100 100 100 100 100 100 100 100 100 60 79 9 98 99 100 98 98 47 14 43 6 5 5 5 62 84 68 38 21 5 5 6 4 5 6 5 9 24 76 100 100 100 48 65 96 62 14
98 100 100 100 100 100 71 100 86 100 100 34 85 66 100 100 100 100 98 38 98 72 22 17 49 34 22 28 38 5 97 67 33 7 27 5 5 55 70 83 84 49 5 17 96 14 13 7 35
100 100 100 100 100 100 96 60 100 100 100 90 91 100 99 100 100 100 78 100 29 8 16 53 52 7 58 78 83 100 100 23 5 5 5 5 31 57 59 25 17 46 29 14 11 21 26 5 48
100 100 100 100 100 100 86 39 74 99 100 100 100 100 100 100 98 69 96 100 100 100 90 49 92 77 80 100 100 100 100 100 100 74 5 11 9 14 32 24 20 15 10 16 34 27 22 30 63
100 100 100 100 100 100 81 92 94 99 100 100 82 100 100 84 98 65 60 28 73 40 66 83 18 15 27 22 56 92 100 90 7 23 40 44 55 93 40 29 40 44 50 24 5 15 97 95 100
100 100 100 100 100 97 44 73 86 99 94 100 100 100 96 97 85 93 59 31 41 7 49 36 9 41 51 42 44 100 88 23 5 77 80 31 28 46 55 67 56 52 20 6 44 67 43 94 89
100 100 100 100 100 100 90 72 100 100 100 67 100 100 89 34 56 15 7 5 5 5 6 9 6 79 96 99 100 100 100 24 27 29 41 40 32 53 42 100 99 19 5 5 5 26 97 91 100
100 100 92 18 99 100 41 100 100 100 73 100 90 100 53 95 61 22 5 5 5 5 1 7 99 85 98 99 100 100 100 65 26 87 42 56 14 29 22 17 2 4 3 5 5 49 91 76 42
100 100 35 55 46 95 39 97 100 100 66 75 100 94 18 88 53 64 69 9 5 6 40 100 100 100 100 100 100 99 100 100 99 29 10 13 5 5 5 3 4 5 5 5 5 55 85 90 14
100 100 34 95 61 100 52 96 8 46 5 17 75 31 67 99 14 89 70 28 50 37 100 89 97 65 15 48 83 90 100 99 30 37 67 80 8 4 5 7 69 68 45 12 11 18 100 96 50
98 100 100 61 100 100 100 99 46 84 93 40 76 97 5 5 78 100 100 99 100 100 100 63 64 24 37 36 60 99 45 75 5 5 12 52 44 8 38 56 93 78 43 36 80 56 92 53 13
100 100 98 100 94 56 100 100 99 19 96 97 13 5 5 5 85 33 76 99 100 100 95 100 99 66 76 100 100 33 88 42 10 62 100 100 80 89 96 100 84 99 93 99 92 100 88 52 5
100 100 100 100 100 100 100 100 100 100 63 28 5 10 5 35 87 66 64 82 94 80 92 61 84 48 96 92 76 86 37 42 54 70 54 99 99 100 100 93 100 86 95 38 100 100 77 67 6
100 100 100 100 100 100 100 98 100 100 94 26 31 68 92 26 6 16 32 90 56 39 90 68 100 79 86 98 76 75 50 42 53 96 100 100 100 100 100 100 97 84 100 99 63 63 29 5 5
100 100 100 100 100 100 100 94 99 5 17 100 100 100 98 91 10 100 100 96 90 20 93 33 83 100 100 88 31 65 71 100 98 100 100 100 100 100 99 91 18 55 76 46 6 5 3 5 5
100 100 100 100 100 100 97 100 24 4 6 26 91 34 30 7 5 43 55 19 8 6 21 87 100 100 100 100 100 81 92 100 100 100 100 92 91 83 78 99 28 5 6 5 5 3 4 5 6
100 100 100 100 100 84 60 70 48 2 5 5 5 68 60 6 6 67 5 8 13 70 14 80 100 100 100 98 72 63 100 100 100 76 61 98 100 100 87 81 6 45 38 5 5 5 7 23 39
100 95 100 57 99 100 95 21 76 66 95 98 97 100 46 51 99 98 21 81 80 98 29 60 77 100 62 81 61 94 100 100 100 100 98 79 100 100 23 66 54 64 21 3 5 96 81 5 36
100 97 98 59 71 48 99 100 100 82 100 80 100 90 19 14 96 85 81 10 16 59 39 32 97 48 95 100 100 100 100 100 100 58 96 61 12 59 89 99 83 19 13 5 5 5 6 64 68
100 98 100 72 81 100 100 100 100 100 100 100 100 100 100 100 98 65 48 11 25 97 100 100 100 99 99 100 76 98 100 100 100 100 12 58 99 100 100 30 5 5 5 5 9 5 33 64 63
100 100 82 62 67 87 76 96 100 100 100 100 100 100 79 67 94 100 78 57 82 100 100 94 99 100 100 100 100 100 100 100 97 91 20 98 95 60 5 5 5 5 5 24 47 5 18 6 22
100 100 91 98 36 90 100 100 100 98 100 100 100 100 100 100 100 100 100 99 100 100 100 100 93 66 100 100 100 96 8 100 100 85 67 82 51 82 100 73 5 13 57 57 5 92 6 5 30

GFSSGP_prec_cloud_201.txt.gz
Cloud_Cover
100 100 89 100 100 14 100 93 100 9 18 22 2 0 1 0 0 21 0 0 0 0 0 0 8 10 0 0 0 0 0 0 0 0 0 0 56 0 0 0 34 71 19 0 0 0 0 0 0
100 100 100 100 100 100 96 90 100 100 100 96 4 0 0 0 0 0 1 0 0 0 0 0 0 0 0 0 0 0 4 2 0 0 0 2 10 78 2 40 8 96 0 0 2 1 1 1 2
100 100 100 100 100 100 100 100 100 100 100 100 5 0 0 1 0 0 0 0 0 0 53 0 0 0 0 0 0 10 10 0 0 0 0 1 1 19 21 18 0 0 0 0 0 0 0 3 0
100 100 100 100 100 100 100 100 100 100 100 100 40 4 0 0 0 0 0 1 6 80 90 34 0 0 2 0 0 5 0 0 0 0 0 0 2 0 0 0 0 0 0 0 0 0 1 10 2
100 100 100 100 100 100 100 100 100 100 100 98 13 5 7 5 5 0 0 1 13 94 69 18 5 1 0 0 10 6 5 0 0 0 0 0 0 0 0 0 0 0 2 0 8 1 0 5 0
100 100 100 100 100 100 100 100 100 100 100 100 5 5 7 14 9 4 0 5 4 83 80 34 32 0 0 0 0 0 3 11 2 0 0 0 0 2 0 6 11 7 2 2 5 5 5 5 4
100 100 100 100 100 100 100 100 100 100 72 99 48 22 49 40 82 5 5 5 5 83 100 73 28 34 7 0 0 0 6 12 5 2 2 0 4 1 5 2 0 5 5 5 5 5 5 40 66
100 100 100 100 100 100 100 100 100 100 78 70 77 29 5 13 64 5 32 39 5 76 100 100 31 5 9 80 8 5 5 5 4 5 2 5 5 5 5 5 43 24 5 31 80 5 5 5 5
100 100 96 100 100 100 100 100 100 100 100 100 100 77 5 24 79 98 14 48 9 25 20 5 10 4 98 98 37 53 12 5 9 100 48 39 32 16 10 14 5 5 9 4 0 5 8 5 63
100 100 100 100 100 100 100 100 100 100 100 100 100 100 48 97 100 99 100 98 41 83 33 20 6 9 59 98 13 6 28 34 100 100 100 89 20 6 5 7 7 5 5 5 24 64 45 14 28
99 100 100 100 100 100 100 100 100 100 100 100 100 99 81 100 100 100 99 93 98 99 86 57 84 58 43 46 60 73 100 100 100 100 100 84 27 46 44 36 88 20 18 78 68 85 98 63 47
100 100 100 100 100 100 100 100 100 100 100 100 100 100 90 100 100 100 29 5 6 96 100 100 95 92 70 100 89 56 49 42 100 100 62 32 10 20 87 22 23 38 88 38 87 97 99 58 100
100 100 100 100 100 100 100 100 100 100 100 100 100 99 100 100 100 72 66 29 68 43 50 54 97 100 71 60 16 20 13 10 99 9 11 13 37 27 33 41 99 73 75 42 18 14 77 37 100
100 100 100 100 100 100 100 100 100 100 100 100 100 100 100 100 100 95 58 56 22 54 63 25 20 5 11 38 20 65 99 100 99 99 26 14 40 65 99 93 91 11 53 9 11 29 29 50 86
100 100 100 100 100 100 100 100 100 100 100 100 100 100 100 99 100 78 98 59 91 71 37 38 19 5 7 96 89 8 7 45 90 100 83 34 38 100 94 34 5 5 5 5 5 95 88 97 100
100 100 100 100 100 100 91 100 100 100 100 100 100 100 100 100 100 98 78 100 95 70 29 37 25 5 29 99 86 84 55 76 99 100 100 84 23 30 23 24 6 5 5 5 18 83 100 100 99
100 100 68 96 100 99 7 100 63 100 57 97 87 94 87 99 100 96 94 100 22 15 49 42 71 9 94 100 19 26 60 78 77 69 45 99 23 5 5 5 5 5 5 5 29 99 100 100 82
100 100 100 100 88 99 19 97 36 99 100 100 100 99 61 100 100 79 52 40 50 24 48 88 58 10 97 23 17 87 65 38 12 27 20 12 21 6 9 5 5 21 62 98 82 66 100 88 24
100 100 100 100 95 96 32 86 41 10 100 100 100 100 36 100 100 93 20 9 82 41 99 93 61 42 5 10 41 41 63 54 67 46 67 5 8 17 79 73 92 96 82 84 19 47 25 25 7
100 100 100 100 100 89 59 65 5 9 22 65 97 57 45 20 100 79 89 25 24 100 100 100 100 45 13 20 39 56 50 52 30 48 17 11 78 100 100 81 88 87 100 35 8 61 36 6 6
100 100 100 100 100 99 54 44 5 70 93 62 23 65 55 37 78 58 48 5 18 86 90 100 95 69 29 11 53 33 60 76 20 56 9 89 87 100 98 92 100 100 100 90 35 33 10 5 86
100 100 100 100 100 96 63 12 5 35 94 28 7 40 31 98 76 78 52 48 96 99 100 72 28 33 61 58 80 51 98 85 16 98 100 100 100 100 100 100 100 100 38 57 8 5 17 100 70
100 100 100 100 100 100 100 53 88 24 27 58 9 97 65 38 5 22 64 88 100 100 80 51 86 77 80 78 32 63 67 30 28 100 100 100 100 100 100 100 83 68 5 5 31 100 100 98 73
100 100 100 100 100 100 100 97 100 5 89 100 100 94 69 56 61 96 100 100 99 53 78 100 100 100 100 99 88 98 100 89 91 100 100 100 100 100 100 66 40 34 4 33 18 29 5 5 5
100 100 100 100 100 100 100 100 98 6 37 44 37 89 90 100 79 100 100 100 64 70 82 100 100 100 97 100 100 100 100 100 98 98 100 100 100 50 44 23 96 100 5 8 84 9 5 17 5
100 100 100 100 57 92 98 98 23 92 100 100 94 94 94 38 98 100 100 100 99 89 100 100 100 98 83 100 100 100 100 97 100 100 100 100 94 83 80 6 22 71 5 2 4 5 5 17 52
100 100 100 100 75 100 7 100 100 100 98 100 100 100 98 97 100 98 12 36 99 5 23 100 87 95 100 100 100 100 98 100 100 100 100 100 100 72 8 24 8 87 8 6 9 5 6 35 50
100 100 100 100 100 18 13 100 99 100 100 100 100 100 100 100 42 49 100 93 51 6 100 79 94 94 100 100 100 99 100 100 100 94 70 94 52 67 100 99 100 91 71 22 39 65 100 100 96
100 100 100 100 100 61 61 100 100 100 100 100 100 100 77 50 89 62 69 32 14 37 96 73 96 100 100 100 100 100 100 100 72 66 38 66 18 100 100 75 98 84 49 86 87 69 80 95 59
100 100 100 100 100 90 81 100 100 100 100 100 100 100 82 98 100 100 36 34 9 46 16 96 100 100 100 100 100 100 83 22 76 7 99 99 100 100 73 95 86 17 63 5 13 5 100 57 92

GFSSGP_prec_cloud_207.txt.gz
Cloud_Cover
98 100 100 100 100 5 38 53 100 36 5 5 3 0 0 0 0 0 0 0 0 0 19 0 40 0 0 0 0 0 0 0 0 0 0 0 1 0 6 0 0 64 60 99 42 100 100 1 0
96 93 99 100 100 3 89 99 100 51 5 5 5 5 1 0 0 0 0 0 0 0 0 0 0 0 0 0 0 0 0 0 0 1 77 0 12 93 35 1 0 52 100 100 100 100 17 0 0
100 100 93 100 100 94 30 99 100 100 14 5 5 3 0 1 5 0 0 0 0 28 4 0 0 0 0 0 0 0 0 0 0 0 0 55 94 33 0 0 0 56 100 100 88 63 0 0 0
100 99 87 100 100 76 30 100 100 100 94 5 5 40 9 65 13 0 0 0 0 4 0 0 0 0 0 0 0 0 0 0 16 0 58 100 44 2 0 0 0 2 70 50 22 0 0 0 0
100 100 98 100 100 100 69 99 100 100 76 19 12 93 100 100 29 2 0 0 0 14 0 0 0 0 0 0 0 0 0 0 0 1 17 4 0 0 0 0 0 0 0 0 0 0 0 0 5
100 88 100 100 99 97 100 100 100 100 100 100 100 100 100 100 50 100 10 0 0 28 14 0 0 0 0 0 0 0 0 0 0 3 3 4 0 11 28 90 2 0 0 0 0 0 1 5 5
99 98 100 100 94 100 95 95 100 100 100 100 100 100 100 100 100 100 48 0 1 15 5 0 3 5 4 0 0 0 0 0 0 1 2 5 60 80 61 6 5 2 4 0 0 0 3 3 5
90 100 100 100 100 100 100 97 100 100 100 100 100 100 100 58 69 94 97 100 56 40 0 0 5 5 5 57 5 52 4 4 5 3 1 1 5 23 11 5 5 1 1 2 4 6 8 29 27
74 100 100 100 100 100 100 98 100 100 77 100 100 100 100 32 74 51 82 85 100 48 39 4 5 5 9 11 25 14 5 5 5 5 4 2 5 5 5 5 4 5 5 7 6 16 5 2 100
97 100 100 100 100 62 100 98 100 94 100 100 100 100 100 2 5 98 95 48 30 97 100 43 14 38 56 71 24 40 5 5 16 5 5 5 15 5 5 5 5 23 100 97 97 51 9 15 91
100 100 100 100 100 6 100 100 100 100 100 100 100 100 100 94 5 63 100 71 12 64 100 93 69 58 100 95 26 50 11 60 94 80 6 87 47 5 95 7 70 76 19 99 97 100 100 5 74
100 100 100 100 100 97 100 100 100 100 100 100 100 100 100 100 100 100 100 100 100 73 63 60 84 99 98 92 94 96 99 52 36 18 35 16 9 85 100 58 6 28 92 69 75 7 92 16 85
100 100 100 100 100 100 100 100 100 100 100 100 100 100 100 100 100 100 100 100 98 70 23 96 71 15 5 7 8 51 7 8 44 76 5 42 15 47 48 9 38 51 59 4 5 33 5 48 100
100 100 100 100 100 100 100 100 100 28 88 100 100 100 100 100 100 100 100 100 75 29 21 74 97 95 7 24 5 6 48 48 65 26 5 5 72 76 69 13 5 44 24 5 5 15 31 77 100
100 100 100 100 100 100 100 100 100 99 100 100 100 100 100 100 100 100 100 100 98 100 100 76 5 5 5 5 5 5 40 43 88 56 14 41 65 78 100 5 76 28 5 5 7 18 99 100 100
100 100 100 100 100 100 99 100 100 98 100 100 100 100 100 100 100 100 100 100 100 100 100 100 79 11 2 5 5 5 5 43 78 81 94 66 28 78 36 6 6 5 5 5 14 53 100 54 98
100 100 100 100 100 100 97 100 100 99 100 100 100 100 100 100 100 100 99 100 100 98 100 100 100 5 51 5 5 24 27 94 70 18 59 54 59 32 17 50 10 5 5 16 45 50 81 94 98
72 100 100 100 100 100 91 100 100 100 100 100 100 100 100 100 100 100 100 100 100 85 99 100 100 15 7 22 5 10 61 100 100 96 62 100 98 94 5 26 16 5 33 39 52 5 84 86 19
85 100 100 100 100 100 98 100 100 100 100 100 100 100 100 100 100 100 100 100 100 100 86 100 96 43 44 57 6 5 46 66 89 100 100 100 100 39 38 51 5 5 33 100 99 14 10 39 76
100 100 100 100 100 100 95 94 100 93 100 100 100 100 100 100 100 100 100 100 100 100 100 100 95 100 32 6 5 14 66 43 88 100 100 100 100 59 40 14 11 8 94 100 98 8 17 100 38
100 99 100 100 100 100 100 100 100 24 100 100 100 100 100 100 100 100 100 100 75 88 69 69 82 80 82 23 5 78 85 83 100 100 100 96 99 98 11 70 69 28 98 33 52 24 14 68 26
100 100 100 100 100 100 100 100 100 100 100 100 100 100 100 100 100 100 100 100 100 66 94 100 100 98 63 7 22 85 100 100 100 100 100 100 98 13 15 54 73 100 96 34 94 93 96 72 94
100 100 100 100 100 100 100 100 100 100 98 87 100 100 100 100 100 100 100 100 48 99 32 99 100 100 74 99 19 91 100 100 100 100 100 100 100 5 100 74 100 82 25 42 28 95 85 94 94
100 100 100 100 100 100 100 100 100 59 78 96 100 100 100 100 100 100 100 76 65 99 100 99 100 100 99 47 70 100 100 100 100 100 70 100 31 100 100 95 94 48 67 56 65 26 13 16 10
100 100 100 100 100 100 100 100 100 25 100 100 100 100 100 100 100 98 99 100 100 100 100 100 100 100 31 19 100 100 100 100 100 100 100 99 100 100 100 82 98 72 33 42 5 5 6 5 5
100 100 100 100 100 100 100 100 100 67 100 100 100 40 100 100 99 93 100 100 100 100 100 100 100 98 45 88 100 100 100 100 98 100 100 100 96 100 100 100 55 100 98 54 16 23 5 30 89
100 100 100 100 100 100 100 96 100 100 80 97 100 100 100 100 100 100 100 100 100 100 100 100 100 95 99 100 100 100 100 92 100 100 100 100 100 99 95 90 100 82 64 10 5 10 11 57 100
100 100 100 100 100 100 100 99 98 100 100 99 100 100 100 100 95 100 100 90 83 100 100 100 100 100 100 100 100 100 100 100 100 100 100 100 100 100 100 100 100 94 13 71 6 10 25 100 100
100 100 100 100 100 100 100 100 100 100 100 94 100 100 100 100 85 32 99 100 100 100 100 100 100 100 100 100 100 100 100 100 100 100 100 100 100 100 92 38 100 100 88 28 92 88 92 100 100
100 100 100 100 100 100 100 100 100 100 100 100 100 100 100 100 98 96 69 100 100 100 100 100 100 100 100 100 100 100 100 100 100 100 100 100 100 100 73 99 100 100 100 75 100 100 100 100 100

GFSSGP_prec_cloud_210.txt.gz
Cloud_Cover
100 100 100 100 98 100 27 8 5 36 8 15 5 5 5 0 0 0 0 0 0 9 0 0 0 4 9 8 0 0 0 0 0 0 4 8 20 0 0 30 100 100 98 100 100 2 0 0 0
100 100 100 99 100 96 41 80 5 5 27 66 32 5 5 0 0 0 14 0 0 25 3 0 0 0 0 0 0 0 0 11 0 0 10 23 96 57 0 17 100 100 100 100 100 4 0 0 0
100 100 100 100 93 90 99 21 5 50 73 22 6 10 6 4 1 0 0 3 24 51 0 0 0 0 0 0 0 0 0 1 4 0 19 84 99 4 0 2 23 100 100 100 84 0 0 0 0
100 100 100 100 100 66 100 100 85 48 77 5 5 41 6 5 2 7 5 3 21 39 0 0 0 0 0 0 0 0 0 0 0 13 100 100 24 0 2 3 5 6 79 84 0 0 0 0 0
100 100 100 100 95 22 100 100 100 8 89 7 2 14 5 5 7 73 93 11 59 27 0 0 0 0 0 0 0 0 28 0 0 97 100 43 1 4 4 6 57 4 1 0 0 0 0 0 0
100 100 100 100 99 22 79 96 100 89 95 57 4 5 12 93 100 100 100 8 46 28 12 0 0 0 0 0 0 0 0 0 1 7 1 1 24 15 5 6 5 1 5 5 1 0 0 0 1
97 100 100 100 100 55 99 94 100 92 100 66 5 9 99 98 100 100 100 100 100 24 12 3 0 0 0 4 4 4 2 0 0 0 0 3 0 0 5 6 5 5 0 4 5 0 0 11 73
97 100 100 100 100 100 100 79 100 100 100 99 98 35 90 87 100 100 100 100 100 38 23 24 23 10 5 4 5 9 11 5 5 5 5 5 1 3 5 5 5 0 0 4 64 21 69 71 83
100 100 100 100 100 100 95 91 99 83 100 100 94 88 100 96 100 100 100 100 98 59 62 23 44 23 14 5 24 5 5 5 5 5 5 5 4 27 19 5 5 5 12 53 92 54 5 35 97
99 68 100 100 100 100 100 100 73 96 100 100 100 100 100 100 100 95 68 100 100 100 85 45 48 26 13 5 10 7 5 5 12 5 23 83 76 58 5 5 66 100 100 62 41 52 2 7 56
53 47 100 100 100 100 100 100 62 99 100 100 99 100 100 100 100 49 6 82 100 74 100 30 45 25 26 77 27 43 38 19 25 44 56 11 18 23 5 30 20 13 37 61 46 56 100 14 70
96 60 100 100 100 100 100 100 92 100 100 100 34 100 100 100 100 38 14 6 92 100 100 98 97 98 24 99 24 37 5 8 9 5 51 12 14 64 5 8 5 2 2 10 6 6 7 6 69
100 92 100 100 100 100 100 100 84 100 100 100 77 100 100 100 100 49 61 78 78 100 100 100 72 22 25 58 33 11 5 5 5 6 37 28 9 10 81 22 5 5 5 4 6 12 5 5 100
100 100 100 100 100 100 100 100 100 100 100 100 100 100 100 100 100 100 100 100 100 100 100 100 13 9 24 57 7 5 5 5 5 5 5 58 69 97 89 78 20 5 45 10 5 2 5 97 100
15 100 100 100 100 100 100 100 100 100 85 100 100 100 100 100 100 100 100 100 100 100 100 100 6 7 99 22 5 5 5 5 5 5 5 13 61 52 71 99 52 5 45 5 5 5 99 100 100
93 98 100 100 100 94 100 100 100 100 100 100 100 100 100 100 100 100 100 100 100 100 100 100 100 81 14 83 10 1 5 5 5 8 14 40 26 68 100 100 97 91 5 6 5 39 84 100 99
100 97 100 100 100 98 61 100 100 100 100 100 99 100 100 100 100 100 100 100 100 100 100 100 99 100 100 100 44 5 5 5 23 38 20 36 43 94 96 100 100 88 12 5 5 40 12 98 90
100 24 100 100 100 100 59 99 100 100 100 100 99 99 100 100 100 100 100 100 100 100 100 100 100 100 100 100 24 54 5 5 60 64 57 82 99 37 75 94 64 41 44 5 5 5 6 5 33
100 94 100 100 100 100 95 100 100 83 100 100 100 100 100 100 100 100 100 100 100 100 100 100 100 100 100 95 76 26 5 14 35 61 70 76 100 33 27 100 86 17 5 5 5 5 5 5 5
100 100 100 100 100 100 100 100 100 63 100 100 100 100 100 100 100 100 100 100 100 100 100 100 100 100 100 100 72 58 5 6 6 88 100 36 100 100 83 87 57 51 6 5 5 5 5 5 1
100 100 100 100 100 100 100 100 100 5 75 100 100 100 100 100 100 100 100 100 100 100 100 100 100 100 100 96 100 100 5 67 49 99 100 100 100 100 100 100 100 74 30 5 8 8 5 5 5
98 64 100 100 100 100 100 85 100 92 99 100 100 100 100 100 100 100 100 100 100 100 100 100 100 90 100 100 100 84 99 92 38 65 100 100 100 100 100 100 85 99 93 14 12 6 44 53 12
100 100 100 100 100 100 100 100 100 100 100 100 100 100 100 100 100 100 100 100 100 100 100 100 100 100 87 85 96 82 99 25 28 100 100 100 100 100 100 100 100 99 74 21 24 65 70 74 40
100 100 100 100 100 100 100 100 100 100 100 100 100 100 100 100 100 100 100 100 100 100 100 100 100 88 91 90 78 99 80 49 92 100 100 100 100 100 100 100 97 100 90 59 98 12 6 89 35
100 100 100 100 100 100 100 97 100 100 100 100 100 100 100 100 100 100 100 100 100 100 100 100 100 100 100 100 100 100 84 100 100 97 100 100 100 98 100 100 100 96 100 97 97 21 8 6 53
100 100 100 100 100 100 100 100 100 100 100 100 91 100 100 100 100 100 100 100 100 100 100 100 100 100 100 100 100 100 100 100 100 100 100 100 100 81 100 100 99 100 100 73 99 47 78 96 64
100 100 100 100 100 100 100 51 100 100 100 100 100 100 100 100 100 100 100 100 100 100 100 100 100 100 100 100 100 100 100 100 100 94 100 100 67 37 100 97 100 80 100 77 96 82 100 95 52
100 100 100 100 100 100 100 100 100 100 100 100 100 100 100 100 100 100 100 100 100 100 100 100 100 100 100 100 100 100 100 100 100 100 100 100 63 60 98 100 100 83 100 78 100 100 86 100 89
100 100 100 100 100 100 100 100 100 100 100 81 100 100 96 100 100 100 100 100 100 100 100 100 100 100 100 100 100 100 100 100 100 100 98 99 96 100 100 100 100 100 97 100 100 100 67 100 100
100 100 100 100 100 100 100 100 100 100 100 100 100 100 100 99 100 100 100 100 100 100 100 100 100 100 100 100 100 100 100 100 100 100 100 100 100 100 100 100 100 100 100 100 100 100 100 100 100

GFSSGP_prec_cloud_216.txt.gz
Cloud_Cover
100 100 98 49 58 97 100 100 100 37 5 5 0 0 0 0 0 0 2 0 0 4 0 0 0 0 11 1 0 0 0 0 0 0 26 73 100 100 100 100 97 100 100 100 74 58 0 0 0
100 100 70 60 15 100 100 100 100 99 6 6 3 0 0 0 0 77 3 0 7 23 0 3 0 0 0 0 0 0 0 0 0 78 74 100 100 100 99 100 100 96 72 100 100 70 0 0 42
100 100 92 5 16 100 100 100 100 100 87 12 5 2 1 0 3 13 0 29 33 40 8 0 0 0 0 0 0 0 0 1 94 7 38 83 100 100 100 100 99 87 43 85 100 49 0 1 97
100 100 100 40 52 100 100 100 100 100 100 75 5 5 5 0 0 2 5 96 82 45 22 4 0 0 0 0 0 0 0 5 3 92 100 100 85 12 33 45 100 100 72 91 3 16 0 39 44
0 54 100 100 79 100 97 82 100 100 100 100 6 71 39 6 0 16 7 100 100 61 13 0 0 0 0 0 0 0 0 1 45 83 99 8 78 0 0 0 0 2 0 0 0 2 2 98 3
0 0 76 100 100 100 92 88 100 100 100 100 88 9 100 94 22 27 67 100 100 98 26 0 0 0 0 0 0 0 0 33 21 61 22 16 75 63 72 0 0 0 0 0 0 0 37 39 6
0 0 12 100 100 100 47 32 100 100 100 49 100 89 92 100 76 10 100 100 100 78 79 19 0 3 0 2 4 0 0 3 57 53 1 0 0 0 4 5 0 0 3 0 0 71 81 100 63
0 1 0 76 100 100 100 46 100 100 100 60 100 100 54 100 100 100 100 100 100 82 100 62 38 59 34 5 0 0 0 0 0 1 5 0 0 0 0 0 0 6 39 8 47 98 100 90 100
60 90 0 0 97 100 100 100 97 100 100 100 100 100 95 100 100 100 100 100 100 100 100 100 71 66 57 6 26 0 0 0 2 5 5 5 2 0 0 0 5 32 32 94 100 100 78 90 94
37 18 0 0 1 100 100 100 80 96 100 100 100 100 100 100 100 100 100 100 100 100 100 100 100 88 60 16 36 8 0 2 5 5 5 4 0 0 3 0 2 40 36 78 100 83 5 69 100
44 20 0 0 0 16 100 100 100 79 99 100 100 100 100 100 100 100 100 100 100 100 100 100 100 100 28 51 43 42 35 29 10 20 5 5 3 1 5 0 4 5 36 100 100 16 1 7 27
85 28 40 1 0 4 29 98 100 96 100 100 100 100 100 100 100 100 100 100 100 100 100 100 100 99 40 50 58 42 36 58 48 34 30 5 13 0 2 0 5 6 29 45 49 36 5 5 6
74 74 90 5 14 4 4 65 100 100 98 100 100 100 100 100 100 100 100 100 100 100 100 100 100 100 100 100 100 67 96 94 40 4 4 5 4 2 1 14 10 31 26 39 65 23 5 5 52
76 72 91 33 60 49 10 33 90 100 48 98 100 100 100 100 100 100 100 100 100 100 100 100 100 100 97 100 100 100 95 18 14 5 5 5 0 0 12 9 33 32 25 35 31 23 29 5 100
5 39 92 7 19 47 26 43 95 100 100 100 100 100 100 100 100 100 100 100 100 100 100 100 100 100 61 88 100 100 97 12 23 6 5 0 1 5 96 96 20 34 31 46 79 44 96 99 100
21 92 37 2 5 7 91 7 81 100 100 100 100 100 100 100 100 100 100 100 100 100 100 100 32 81 51 100 100 100 96 7 6 5 6 5 5 16 20 10 20 34 41 56 100 100 97 95 100
0 5 71 78 64 7 12 1 0 100 100 100 100 100 100 100 100 100 100 100 100 100 100 100 79 100 58 100 100 100 100 82 97 13 19 5 5 5 21 14 60 73 40 62 75 97 100 90 76
0 0 3 19 15 36 5 17 3 10 100 100 100 100 100 100 100 100 100 100 100 100 100 100 100 91 100 100 100 100 100 100 46 65 36 5 5 5 20 23 95 94 90 98 98 100 100 90 68
0 0 0 0 4 50 100 71 39 3 80 100 100 100 100 100 100 100 100 100 100 100 100 100 100 97 100 100 100 100 100 92 100 73 44 44 15 35 13 16 100 94 99 100 100 100 100 61 70
5 4 3 0 5 40 78 100 88 90 6 100 100 100 100 100 100 100 100 100 100 100 100 100 100 75 100 100 100 100 100 100 100 98 46 42 87 55 72 57 100 100 100 100 62 100 83 11 5
12 12 5 0 1 18 88 18 88 27 4 96 100 100 100 95 100 100 100 100 100 100 100 100 100 30 96 100 100 100 100 100 70 80 79 25 47 79 48 100 90 100 100 100 100 100 99 25 23
5 3 47 5 4 5 36 94 74 82 3 2 100 100 100 100 100 100 98 100 100 100 100 100 100 99 100 100 100 100 100 100 100 98 36 34 44 51 92 100 100 100 100 94 100 91 100 100 38
8 6 28 85 3 32 2 100 5 50 8 0 100 100 100 100 100 100 100 100 100 100 100 100 100 100 100 100 100 100 100 100 100 98 84 94 77 93 93 100 100 100 100 100 100 99 97 47 100
99 100 97 98 69 96 0 100 1 4 0 0 99 100 100 100 100 100 100 100 100 100 100 100 100 100 100 100 100 100 100 100 47 85 91 100 42 84 100 100 100 100 100 100 83 92 79 100 44
100 100 100 100 100 3 75 100 8 4 2 0 97 100 100 100 100 100 100 100 100 100 100 100 100 100 100 100 100 100 100 63 13 86 100 100 76 100 100 100 100 100 100 100 100 100 100 100 37
83 91 95 30 56 7 98 85 98 43 50 5 98 100 100 100 100 100 100 100 100 100 100 100 100 100 100 100 100 100 100 7 73 100 100 100 100 100 100 100 100 100 100 99 100 100 97 82 100
45 100 100 100 100 100 100 93 93 6 4 2 100 12 100 100 100 100 100 100 100 100 100 100 100 100 100 100 100 100 28 38 99 100 100 100 100 100 100 100 100 100 81 99 100 46 100 100 98
100 100 100 100 100 100 100 98 55 9 5 3 100 30 93 100 100 100 100 100 100 100 100 100 100 100 100 100 100 100 84 100 100 100 100 100 100 100 100 100 100 100 51 99 93 100 100 100 100
100 100 100 100 100 100 100 100 32 42 5 5 100 96 100 100 100 100 100 100 100 100 100 100 100 100 100 100 100 100 100 100 100 100 100 100 100 100 100 100 100 100 100 100 100 100 100 100 100
100 100 100 100 100 100 100 94 100 18 24 67 100 100 100 100 100 100 100 100 100 100 100 100 100 100 100 100 100 100 100 100 100 100 100 100 100 100 100 100 100 93 100 100 100 100 100 100 100

GFSSGP_prec_cloud_219.txt.gz
Cloud_Cover
100 100 96 100 6 90 74 99 100 100 100 100 8 5 2 5 0 0 1 0 0 0 1 0 0 0 4 0 0 0 0 0 4 98 100 100 100 87 96 78 100 99 100 100 100 23 0 0 0
100 100 98 48 6 58 73 100 100 100 100 100 49 38 3 5 5 66 1 0 0 4 0 0 0 0 0 0 0 0 0 1 4 100 66 100 100 100 100 100 38 18 54 100 94 0 0 62 0
94 100 100 47 5 98 53 58 100 100 100 100 100 82 6 3 5 5 0 16 39 48 45 0 0 0 0 0 0 0 0 1 62 3 1 100 98 100 100 87 12 19 26 88 100 38 15 51 0
0 100 100 100 98 93 83 18 99 100 100 100 100 100 36 5 5 5 2 100 98 75 40 5 0 0 0 0 0 0 0 27 1 36 99 100 100 96 96 99 97 31 94 87 0 0 36 0 0
0 0 90 100 100 100 76 25 63 100 100 100 100 100 86 21 5 13 48 100 98 73 55 26 0 0 0 0 0 0 0 0 6 28 69 100 38 0 6 7 50 0 0 5 0 6 24 0 0
0 0 0 72 100 100 98 5 22 100 100 100 100 100 100 77 31 80 73 100 100 82 41 19 0 0 0 0 0 0 0 34 38 0 26 100 9 33 0 0 0 0 0 26 14 3 7 4 3
0 0 0 0 62 100 100 35 36 100 100 100 100 100 100 97 65 76 100 100 100 86 32 5 1 2 3 0 0 15 63 49 3 0 15 8 2 0 0 0 0 0 0 4 16 98 97 30 78
3 30 6 0 0 100 100 100 100 100 100 100 100 100 100 100 83 96 100 100 100 92 55 31 6 5 5 9 16 5 3 34 0 0 2 0 0 0 0 0 0 96 3 15 100 100 84 98 100
50 16 2 0 0 0 97 100 100 100 100 100 100 100 100 100 100 100 100 100 100 100 100 66 27 70 25 100 82 92 14 3 4 0 1 1 1 1 5 0 0 42 49 100 100 100 23 96 75
100 16 0 0 0 0 0 64 100 100 100 100 100 100 100 100 100 100 100 100 100 100 100 98 100 100 83 100 95 76 6 54 7 3 5 3 1 5 5 0 2 5 97 100 100 34 0 97 100
100 76 0 0 0 0 0 0 64 100 100 100 100 99 100 100 100 100 100 100 100 100 100 100 100 100 100 100 54 37 74 15 6 5 5 5 5 5 2 5 28 65 100 100 60 0 0 4 2
51 59 95 0 0 0 0 0 1 98 100 100 100 100 100 100 100 100 100 100 100 100 100 100 100 100 94 100 75 50 53 20 22 14 12 5 2 5 5 0 13 71 100 67 25 5 0 5 5
70 25 9 18 12 2 0 1 0 10 100 100 100 100 91 100 100 100 100 100 100 100 100 100 100 100 100 100 98 57 32 60 78 84 37 5 5 5 5 2 1 54 52 63 36 5 13 7 8
77 100 27 33 36 14 4 0 3 0 76 100 100 100 100 100 100 100 100 100 100 100 100 100 100 100 97 100 100 100 82 92 100 100 35 5 5 5 5 2 18 60 35 31 15 6 67 100 93
100 98 94 2 27 84 94 3 0 0 5 100 100 100 100 100 100 100 100 100 100 100 100 100 100 100 100 100 100 100 100 100 100 86 6 5 5 5 5 92 43 57 46 31 32 18 86 63 91
7 8 7 13 4 4 2 6 0 0 4 79 100 100 100 100 100 100 100 100 100 100 100 100 100 100 100 100 100 51 100 100 100 100 6 5 2 5 5 19 70 55 48 30 83 49 60 83 100
14 5 5 12 1 0 2 1 0 0 2 20 100 100 100 100 100 100 100 100 100 100 100 100 100 100 100 100 71 75 88 100 100 100 37 82 36 15 18 5 28 46 49 69 54 10 32 99 100
5 5 0 1 1 0 15 55 1 0 0 3 100 100 100 100 100 100 100 100 100 100 100 100 100 100 100 100 100 85 99 100 57 91 100 100 22 15 37 5 51 52 83 99 100 54 64 100 100
5 5 1 0 0 0 2 43 100 95 2 0 98 100 100 100 100 100 100 100 100 100 100 100 100 100 100 100 100 92 100 30 92 99 100 100 98 77 41 61 73 76 98 80 96 79 60 94 74
5 4 4 3 2 0 0 2 5 93 70 5 19 100 100 100 100 100 100 100 100 100 100 100 100 100 100 100 100 100 78 91 98 100 100 12 100 83 5 9 67 71 100 100 100 96 100 100 42
5 5 2 0 0 0 2 0 0 0 97 23 0 100 100 100 100 100 100 100 100 100 100 100 100 100 100 100 100 100 90 100 100 100 100 74 100 6 5 23 43 74 95 100 100 100 100 100 79
70 3 1 3 5 3 1 0 0 0 0 21 0 96 100 100 100 100 70 100 100 100 100 100 100 100 100 100 100 100 100 100 100 100 100 100 70 11 5 41 87 98 100 100 100 100 100 100 65
47 5 5 5 5 6 1 20 0 0 0 1 4 1 100 100 100 100 100 100 100 100 100 100 100 100 100 100 100 100 100 100 100 100 100 100 83 25 10 55 100 100 100 100 100 100 100 100 100
76 64 63 89 71 100 7 22 0 0 0 0 3 5 69 100 100 100 100 100 100 90 100 100 100 100 100 100 100 100 100 100 100 100 100 100 98 95 69 100 100 100 100 100 100 100 100 100 100
100 100 100 100 100 60 4 3 4 0 0 0 2 2 0 99 100 100 100 100 100 100 100 100 100 100 100 100 100 100 100 100 99 100 100 98 100 100 92 100 100 100 100 100 100 100 100 100 100
100 100 100 100 98 0 5 36 0 0 0 0 0 0 0 2 100 100 100 100 100 100 100 100 100 100 100 100 100 100 100 100 98 100 100 100 100 97 84 100 100 100 100 100 100 100 100 100 100
100 100 100 86 9 95 14 2 0 0 1 57 62 4 0 0 100 100 100 100 100 100 100 100 100 100 100 100 100 100 100 100 100 100 100 100 100 99 100 100 100 100 100 100 100 100 100 100 94
100 91 83 99 94 93 98 96 71 88 100 100 75 5 0 0 74 100 100 100 100 100 100 98 100 100 100 100 100 100 100 100 100 100 100 100 98 100 100 100 100 100 100 100 100 100 100 100 100
100 100 100 100 100 100 100 100 100 100 100 100 68 4 2 3 4 100 100 100 100 100 100 75 100 100 100 100 100 100 100 100 100 100 100 100 100 100 100 100 100 100 100 100 100 100 100 100 100
100 100 100 100 100 100 100 100 100 100 100 100 88 5 0 14 25 81 100 100 100 100 100 100 100 100 100 100 100 100 100 92 100 100 99 100 100 100 100 100 100 100 100 100 100 100 100 100 100